Stündliche Wetter Warpuny

Heute, 19 Oktober, Montag

Zeit Temperatur Niederschläge Wind Luftdruck Luftfeuchtigkeit
00:00 +1°C° 0 mm 4 m/S 747 mmHg 83%
01:00 +1°C° 0 mm 4 m/S 747 mmHg 84%
02:00 +1°C° 0 mm 4 m/S 748 mmHg 84%
03:00 +1°C° 0 mm 4 m/S 748 mmHg 84%
04:00 +1°C° 0 mm 5 m/S 748 mmHg 83%
05:00 +1°C° 0 mm 4 m/S 748 mmHg 84%
06:00 +1°C° 0 mm 4 m/S 749 mmHg 85%
07:00 +1°C° 0 mm 5 m/S 749 mmHg 84%
08:00 +2°C° 0 mm 5 m/S 750 mmHg 83%
09:00 +5°C° 0 mm 5 m/S 750 mmHg 81%
10:00 +6°C° 0 mm 5 m/S 750 mmHg 79%
11:00 +6°C° 0 mm 5 m/S 750 mmHg 75%
12:00 +7°C° 0 mm 5 m/S 750 mmHg 71%
13:00 +8°C° 0 mm 5 m/S 750 mmHg 67%
14:00 +7°C° 0 mm 5 m/S 751 mmHg 68%
15:00 +6°C° 0 mm 4 m/S 751 mmHg 70%
16:00 +7°C° 0 mm 3 m/S 751 mmHg 72%
17:00 +5°C° 0 mm 4 m/S 751 mmHg 76%
18:00 +5°C° 0 mm 4 m/S 751 mmHg 80%
19:00 +4°C° 0 mm 4 m/S 751 mmHg 84%
20:00 +4°C° 0 mm 4 m/S 751 mmHg 86%
21:00 +4°C° 0 mm 4 m/S 752 mmHg 87%
22:00 +4°C° 0 mm 4 m/S 752 mmHg 88%
23:00 +4°C° 0 mm 4 m/S 752 mmHg 89%

Morgen, 20 Oktober, Dienstag

Zeit Temperatur Niederschläge Wind Luftdruck Luftfeuchtigkeit
00:00 +4°C° 0 mm 4 m/S 753 mmHg 89%
01:00 +3°C° 0 mm 4 m/S 753 mmHg 89%
02:00 +3°C° 0 mm 4 m/S 753 mmHg 90%
03:00 +3°C° 0 mm 4 m/S 753 mmHg 90%
04:00 +3°C° 0 mm 4 m/S 753 mmHg 90%
05:00 +3°C° 0 mm 3 m/S 754 mmHg 91%
06:00 +3°C° 0 mm 3 m/S 754 mmHg 91%
07:00 +3°C° 0 mm 3 m/S 754 mmHg 91%
08:00 +4°C° 0 mm 3 m/S 754 mmHg 86%
09:00 +5°C° 0 mm 3 m/S 755 mmHg 81%
10:00 +7°C° 0 mm 3 m/S 755 mmHg 76%
11:00 +8°C° 0 mm 3 m/S 755 mmHg 72%
12:00 +9°C° 0 mm 3 m/S 754 mmHg 68%
13:00 +10°C° 0 mm 3 m/S 754 mmHg 64%
14:00 +9°C° 0 mm 3 m/S 754 mmHg 66%
15:00 +9°C° 0 mm 3 m/S 753 mmHg 69%
16:00 +8°C° 0 mm 3 m/S 753 mmHg 71%
17:00 +7°C° 0 mm 4 m/S 752 mmHg 72%
18:00 +6°C° 0 mm 4 m/S 752 mmHg 74%
19:00 +6°C° 0 mm 4 m/S 751 mmHg 75%
20:00 +6°C° 0 mm 5 m/S 751 mmHg 75%
21:00 +7°C° 0 mm 5 m/S 751 mmHg 75%
22:00 +7°C° 0 mm 5 m/S 750 mmHg 75%
23:00 +7°C° 0 mm 5 m/S 750 mmHg 76%

übermorgen, 21 Oktober, Mittwoch

Zeit Temperatur Niederschläge Wind Luftdruck Luftfeuchtigkeit
00:00 +7°C° 0 mm 5 m/S 749 mmHg 77%
01:00 +7°C° 0 mm 4 m/S 749 mmHg 77%
02:00 +7°C° 0.2 mm 4 m/S 748 mmHg 80%
03:00 +7°C° 0.2 mm 4 m/S 748 mmHg 83%
04:00 +7°C° 0.2 mm 4 m/S 748 mmHg 86%
05:00 +7°C° 0 mm 4 m/S 748 mmHg 86%
06:00 +7°C° 0 mm 4 m/S 747 mmHg 85%
07:00 +7°C° 0 mm 4 m/S 747 mmHg 85%
08:00 +8°C° 0 mm 4 m/S 747 mmHg 83%
09:00 +8°C° 0 mm 4 m/S 747 mmHg 81%
10:00 +10°C° 0 mm 4 m/S 747 mmHg 80%
11:00 +10°C° 0.1 mm 4 m/S 748 mmHg 83%
12:00 +10°C° 0.1 mm 3 m/S 748 mmHg 86%
13:00 +10°C° 0.1 mm 3 m/S 748 mmHg 89%
14:00 +10°C° 0.2 mm 3 m/S 747 mmHg 89%
15:00 +10°C° 0.2 mm 3 m/S 747 mmHg 88%
16:00 +10°C° 0.2 mm 4 m/S 747 mmHg 87%
17:00 +10°C° 0 mm 4 m/S 746 mmHg 85%
18:00 +10°C° 0 mm 4 m/S 746 mmHg 83%
19:00 +10°C° 0 mm 4 m/S 746 mmHg 81%
20:00 +10°C° 0 mm 4 m/S 746 mmHg 79%
21:00 +10°C° 0 mm 5 m/S 745 mmHg 78%
22:00 +10°C° 0 mm 5 m/S 745 mmHg 77%
23:00 +10°C° 0 mm 6 m/S 745 mmHg 77%

22 Oktober, Donnerstag

Zeit Temperatur Niederschläge Wind Luftdruck Luftfeuchtigkeit
00:00 +10°C° 0 mm 6 m/S 745 mmHg 76%
01:00 +10°C° 0 mm 6 m/S 744 mmHg 76%
02:00 +10°C° 0 mm 6 m/S 745 mmHg 77%
03:00 +10°C° 0 mm 6 m/S 745 mmHg 77%
04:00 +10°C° 0 mm 6 m/S 745 mmHg 77%
05:00 +10°C° 0 mm 6 m/S 745 mmHg 80%
06:00 +10°C° 0 mm 5 m/S 745 mmHg 83%
07:00 +10°C° 0 mm 5 m/S 745 mmHg 86%
08:00 +12°C° 0 mm 5 m/S 746 mmHg 82%
09:00 +13°C° 0 mm 6 m/S 746 mmHg 79%
10:00 +14°C° 0 mm 6 m/S 746 mmHg 75%
11:00 +15°C° 0 mm 6 m/S 746 mmHg 73%
12:00 +16°C° 0 mm 7 m/S 746 mmHg 70%
13:00 +17°C° 0 mm 7 m/S 746 mmHg 67%
14:00 +16°C° 0 mm 6 m/S 746 mmHg 70%
15:00 +16°C° 0 mm 5 m/S 746 mmHg 73%
16:00 +15°C° 0 mm 4 m/S 746 mmHg 76%
17:00 +14°C° 0 mm 5 m/S 746 mmHg 78%
18:00 +14°C° 0 mm 5 m/S 746 mmHg 79%
19:00 +13°C° 0 mm 5 m/S 746 mmHg 81%
20:00 +13°C° 0 mm 5 m/S 746 mmHg 82%
21:00 +13°C° 0 mm 5 m/S 746 mmHg 83%
22:00 +13°C° 0 mm 4 m/S 746 mmHg 84%
23:00 +13°C° 0 mm 4 m/S 746 mmHg 86%

23 Oktober, Freitag

Zeit Temperatur Niederschläge Wind Luftdruck Luftfeuchtigkeit
00:00 +12°C° 0 mm 4 m/S 746 mmHg 87%
01:00 +12°C° 0 mm 4 m/S 746 mmHg 89%
02:00 +12°C° 0.3 mm 4 m/S 745 mmHg 89%
03:00 +12°C° 0.3 mm 4 m/S 745 mmHg 89%
04:00 +12°C° 0.3 mm 5 m/S 744 mmHg 89%
05:00 +12°C° 1.3 mm 5 m/S 744 mmHg 89%
06:00 +12°C° 1.3 mm 5 m/S 744 mmHg 89%
07:00 +12°C° 1.3 mm 5 m/S 744 mmHg 89%
08:00 +12°C° 0.2 mm 4 m/S 744 mmHg 90%
09:00 +12°C° 0.2 mm 4 m/S 744 mmHg 91%
10:00 +12°C° 0.2 mm 4 m/S 745 mmHg 92%
11:00 +13°C° 0.1 mm 4 m/S 745 mmHg 90%
12:00 +13°C° 0.1 mm 3 m/S 745 mmHg 88%
13:00 +13°C° 0.1 mm 3 m/S 745 mmHg 86%
14:00 +13°C° 0.1 mm 3 m/S 745 mmHg 88%
15:00 +12°C° 0.1 mm 3 m/S 745 mmHg 90%
16:00 +13°C° 0.1 mm 2 m/S 745 mmHg 91%
17:00 +12°C° 0 mm 2 m/S 745 mmHg 93%
18:00 +10°C° 0 mm 2 m/S 746 mmHg 94%
19:00 +9°C° 0 mm 2 m/S 746 mmHg 95%
20:00 +10°C° 0 mm 1 m/S 746 mmHg 95%
21:00 +10°C° 0 mm 1 m/S 746 mmHg 95%
22:00 +10°C° 0 mm 1 m/S 746 mmHg 94%
23:00 +10°C° 0 mm 1 m/S 746 mmHg 94%

24 Oktober, Samstag

Zeit Temperatur Niederschläge Wind Luftdruck Luftfeuchtigkeit
00:00 +9°C° 0 mm 1 m/S 746 mmHg 93%
01:00 +9°C° 0 mm 1 m/S 747 mmHg 93%
02:00 +9°C° 0 mm 1 m/S 747 mmHg 93%
03:00 +8°C° 0 mm 1 m/S 747 mmHg 93%
04:00 +8°C° 0 mm 1 m/S 747 mmHg 93%
05:00 +8°C° 0 mm 1 m/S 747 mmHg 93%
06:00 +8°C° 0 mm 1 m/S 747 mmHg 92%
07:00 +8°C° 0 mm 1 m/S 747 mmHg 92%
08:00 +9°C° 0 mm 1 m/S 748 mmHg 87%
09:00 +10°C° 0 mm 1 m/S 748 mmHg 82%
10:00 +11°C° 0 mm 1 m/S 748 mmHg 77%
11:00 +11°C° 0 mm 1 m/S 748 mmHg 75%
12:00 +12°C° 0 mm 1 m/S 748 mmHg 72%
13:00 +12°C° 0 mm 1 m/S 749 mmHg 70%
14:00 +12°C° 0 mm 1 m/S 749 mmHg 74%
15:00 +11°C° 0 mm 1 m/S 749 mmHg 78%
16:00 +11°C° 0 mm 1 m/S 749 mmHg 81%
17:00 +10°C° 0.1 mm 1 m/S 749 mmHg 83%
18:00 +9°C° 0.1 mm 0 m/S 749 mmHg 85%
19:00 +9°C° 0.1 mm 0 m/S 750 mmHg 87%
20:00 +10°C° 0 mm 1 m/S 750 mmHg 89%
21:00 +9°C° 0 mm 1 m/S 750 mmHg 90%
22:00 +9°C° 0 mm 1 m/S 750 mmHg 91%
23:00 +9°C° 0 mm 1 m/S 751 mmHg 92%

25 Oktober, Sonntag

Zeit Temperatur Niederschläge Wind Luftdruck Luftfeuchtigkeit
00:00 +8°C° 0 mm 2 m/S 751 mmHg 93%
01:00 +8°C° 0 mm 2 m/S 751 mmHg 95%
02:00 +8°C° 0 mm 2 m/S 751 mmHg 95%
03:00 +7°C° 0 mm 2 m/S 751 mmHg 96%
04:00 +7°C° 0 mm 2 m/S 752 mmHg 96%
05:00 +7°C° 0 mm 2 m/S 752 mmHg 97%
06:00 +6°C° 0 mm 2 m/S 752 mmHg 97%
07:00 +6°C° 0 mm 2 m/S 752 mmHg 97%
08:00 +8°C° 0 mm 2 m/S 753 mmHg 92%
09:00 +10°C° 0 mm 1 m/S 753 mmHg 88%
10:00 +11°C° 0 mm 1 m/S 753 mmHg 83%
11:00 +12°C° 0 mm 1 m/S 753 mmHg 80%
12:00 +13°C° 0 mm 1 m/S 754 mmHg 76%
13:00 +12°C° 0 mm 0 m/S 754 mmHg 73%
14:00 +11°C° 0 mm 0 m/S 753 mmHg 76%
15:00 +11°C° 0 mm 0 m/S 753 mmHg 80%
16:00 +10°C° 0 mm 0 m/S 753 mmHg 83%
17:00 +9°C° 0 mm 0 m/S 753 mmHg 85%
18:00 +10°C° 0 mm 1 m/S 753 mmHg 87%
19:00 +9°C° 0 mm 1 m/S 754 mmHg 89%
20:00 +9°C° 0 mm 1 m/S 754 mmHg 89%
21:00 +7°C° 0 mm 2 m/S 754 mmHg 90%
22:00 +7°C° 0 mm 2 m/S 754 mmHg 91%
23:00 +7°C° 0 mm 2 m/S 754 mmHg 92%
Mehr zeigen

Wir brauchen deine Erlaubnis

Meteoprog und unser Service Anbieter werden persönliche Daten aufbewahren, so wie Cookies, Geräte Bezeichnung oder ähnliche Technologien von deinem Gerät und Prozess, so wie Persönliche Daten Inhalte und Werbungen, genauso wie social Media und den Verkehr zu analysieren.

  • Aufbewahrung und/oder Zugang zu deiner Geräte Informationen.

    Cookies, Geräte Bezeichnung oder andere Informationen, können aufbewahrt oder Zugang zu deinem Gerät erhalten, für den Grund, der oben angegeben wird.

  • Personalisierte Werbung und Inhalte, Messungen, Einblick in das Publikum und Produkt Entwicklung.

    Werbungen und Inhalte können personalisiert werden, basierend auf ein Profil. Mehr Daten können besser personalisierte Werbungen und Inhalte hinzufügen. Werbung und Inhalte können gezeigt und gemessen werden. Einblicke über das Publikum, welche die Werbung gesehen haben und den Inhalt, können abgeleitet werden. So wie Daten können genutzt werden, um es zu verbessern oder die Benutzer Erfahrung zu verbessern das System und die Software.

Wenn du “Ich stimme zu” klickst, erlaubst du uns, die Cookies zu benutzen die Geräte Bezeichnung, den Web oder ähnliche Technologien zu benutzen. Deine Settings, können in deinem Gerät bei deinem Browser geändert werden.

Für den bestimmten Zweck, berechtigten Interessen beruhen darauf, mehr als auf den Inhalt. Du kannst mehr darüber in unseren Privaten und Cookie Politik lesen.